Year,Month,Day,Hour,Minute,Value (Times are PST for temperature in C)
2012,02,29,00,00,4.30
2012,02,29,00,03,4.20
2012,02,29,00,04,4.10
2012,02,29,00,05,4.10
2012,02,29,00,06,4.10
2012,02,29,00,08,4.10
2012,02,29,00,09,4.10
2012,02,29,00,10,4.10
2012,02,29,00,12,4.10
2012,02,29,00,13,4.00
2012,02,29,00,14,4.00
2012,02,29,00,15,4.00
2012,02,29,00,17,3.90
2012,02,29,00,18,3.90
2012,02,29,00,20,3.90
2012,02,29,00,21,3.80
2012,02,29,00,22,3.80
2012,02,29,00,23,3.80
2012,02,29,00,25,3.80
2012,02,29,00,26,3.70
2012,02,29,00,27,3.70
2012,02,29,00,29,3.70
2012,02,29,00,30,3.70
2012,02,29,00,31,3.70
2012,02,29,00,32,3.70
2012,02,29,00,34,3.70
2012,02,29,00,35,3.70
2012,02,29,00,36,3.70
2012,02,29,00,37,3.80
2012,02,29,00,39,3.80
2012,02,29,00,40,3.80
2012,02,29,00,41,3.80
2012,02,29,00,42,3.80
2012,02,29,00,44,3.80
2012,02,29,00,45,3.80
2012,02,29,00,46,3.90
2012,02,29,00,47,3.90
2012,02,29,00,49,3.90
2012,02,29,00,50,3.90
2012,02,29,00,51,3.90
2012,02,29,00,52,3.90
2012,02,29,00,54,3.90
2012,02,29,00,55,3.90
2012,02,29,00,56,3.90
2012,02,29,00,58,3.90
2012,02,29,00,59,3.90
2012,02,29,01,00,3.90
2012,02,29,01,01,3.90
2012,02,29,01,03,3.90
2012,02,29,01,04,3.90
2012,02,29,01,05,3.90
2012,02,29,01,06,4.00
2012,02,29,01,07,4.00
2012,02,29,01,08,4.00
2012,02,29,01,09,4.10
2012,02,29,01,10,4.10
2012,02,29,01,11,4.10
2012,02,29,01,12,4.10
2012,02,29,01,14,4.10
2012,02,29,01,15,4.10
2012,02,29,01,16,4.10
2012,02,29,01,17,4.10
2012,02,29,01,18,4.10
2012,02,29,01,19,4.10
2012,02,29,01,20,4.10
2012,02,29,01,21,4.10
2012,02,29,01,22,4.00
2012,02,29,01,24,4.00
2012,02,29,01,25,4.00
2012,02,29,01,26,4.00
2012,02,29,01,28,4.00
2012,02,29,01,29,4.00
2012,02,29,01,30,4.00
2012,02,29,01,31,4.00
2012,02,29,01,32,4.00
2012,02,29,01,33,4.00
2012,02,29,01,34,4.00
2012,02,29,01,35,4.10
2012,02,29,01,36,4.10
2012,02,29,01,37,4.10
2012,02,29,01,38,4.10
2012,02,29,01,39,4.10
2012,02,29,01,40,4.10
2012,02,29,01,41,4.10
2012,02,29,01,43,4.10
2012,02,29,01,44,4.20
2012,02,29,01,45,4.20
2012,02,29,01,46,4.20
2012,02,29,01,47,4.20
2012,02,29,01,48,4.20
2012,02,29,01,49,4.20
2012,02,29,01,50,4.20
2012,02,29,01,51,4.20
2012,02,29,01,52,4.20
2012,02,29,01,53,4.20
2012,02,29,01,54,4.20
2012,02,29,01,55,4.20
2012,02,29,01,56,4.20
2012,02,29,01,57,4.20
2012,02,29,01,58,4.20
2012,02,29,01,59,4.20
2012,02,29,02,00,4.20
2012,02,29,02,01,4.20
2012,02,29,02,02,4.20
2012,02,29,02,03,4.20
2012,02,29,02,04,4.20
2012,02,29,02,05,4.20
2012,02,29,02,06,4.20
2012,02,29,02,07,4.20
2012,02,29,02,08,4.20
2012,02,29,02,09,4.10
2012,02,29,02,10,4.10
2012,02,29,02,11,4.10
2012,02,29,02,12,4.00
2012,02,29,02,13,4.00
2012,02,29,02,14,3.90
2012,02,29,02,15,3.90
2012,02,29,02,16,3.90
2012,02,29,02,17,3.90
2012,02,29,02,18,3.90
2012,02,29,02,19,3.90
2012,02,29,02,20,3.90
2012,02,29,02,21,3.90
2012,02,29,02,22,3.90
2012,02,29,02,23,3.90
2012,02,29,02,24,3.90
2012,02,29,02,25,3.80
2012,02,29,02,26,3.80
2012,02,29,02,27,3.80
2012,02,29,02,28,3.80
2012,02,29,02,29,3.80
2012,02,29,02,30,3.90
2012,02,29,02,31,3.80
2012,02,29,02,32,3.80
2012,02,29,02,33,3.80
2012,02,29,02,34,3.80
2012,02,29,02,35,3.80
2012,02,29,02,37,3.80
2012,02,29,02,38,3.80
2012,02,29,02,39,3.80
2012,02,29,02,41,3.90
2012,02,29,02,42,3.80
2012,02,29,02,43,3.80
2012,02,29,02,44,3.80
2012,02,29,02,46,3.90
2012,02,29,02,47,3.90
2012,02,29,02,48,3.90
2012,02,29,02,49,3.90
2012,02,29,02,51,3.90
2012,02,29,02,52,3.90
2012,02,29,02,53,3.90
2012,02,29,02,55,3.90
2012,02,29,02,56,3.90
2012,02,29,02,57,3.90
2012,02,29,02,58,3.90
2012,02,29,03,00,3.80
2012,02,29,03,01,3.80
2012,02,29,03,02,3.80
2012,02,29,03,04,3.80
2012,02,29,03,05,3.80
2012,02,29,03,06,3.80
2012,02,29,03,07,3.80
2012,02,29,03,09,3.80
2012,02,29,03,10,3.80
2012,02,29,03,11,3.80
2012,02,29,03,12,3.80
2012,02,29,03,13,3.70
2012,02,29,03,14,3.70
2012,02,29,03,15,3.70
2012,02,29,03,16,3.70
2012,02,29,03,18,3.60
2012,02,29,03,19,3.60
2012,02,29,03,20,3.60
2012,02,29,03,21,3.50
2012,02,29,03,22,3.50
2012,02,29,03,23,3.40
2012,02,29,03,24,3.40
2012,02,29,03,25,3.40
2012,02,29,03,27,3.30
2012,02,29,03,29,3.30
2012,02,29,03,30,3.30
2012,02,29,03,31,3.30
2012,02,29,03,32,3.30
2012,02,29,03,33,3.30
2012,02,29,03,34,3.40
2012,02,29,03,35,3.40
2012,02,29,03,36,3.40
2012,02,29,03,37,3.40
2012,02,29,03,38,3.40
2012,02,29,03,39,3.40
2012,02,29,03,40,3.40
2012,02,29,03,41,3.30
2012,02,29,03,42,3.30
2012,02,29,03,43,3.30
2012,02,29,03,44,3.30
2012,02,29,03,46,3.30
2012,02,29,03,47,3.30
2012,02,29,03,48,3.30
2012,02,29,03,49,3.20
2012,02,29,03,50,3.20
2012,02,29,03,51,3.20
2012,02,29,03,52,3.20
2012,02,29,03,53,3.20
2012,02,29,03,54,3.20
2012,02,29,03,55,3.20
2012,02,29,03,56,3.20
2012,02,29,03,57,3.30
2012,02,29,03,58,3.30
2012,02,29,03,59,3.30
2012,02,29,04,01,3.30
2012,02,29,04,02,3.30
2012,02,29,04,03,3.30
2012,02,29,04,04,3.30
2012,02,29,04,05,3.30
2012,02,29,04,06,3.30
2012,02,29,04,07,3.30
2012,02,29,04,08,3.30
2012,02,29,04,09,3.30
2012,02,29,04,10,3.20
2012,02,29,04,11,3.20
2012,02,29,04,12,3.10
2012,02,29,04,13,3.10
2012,02,29,04,15,3.00
2012,02,29,04,17,3.00
2012,02,29,04,18,2.90
2012,02,29,04,19,2.90
2012,02,29,04,20,3.00
2012,02,29,04,21,3.10
2012,02,29,04,22,3.10
2012,02,29,04,24,3.20
2012,02,29,04,25,3.20
2012,02,29,04,27,3.20
2012,02,29,04,28,3.20
2012,02,29,04,29,3.20
2012,02,29,04,30,3.30
2012,02,29,04,31,3.30
2012,02,29,04,33,3.30
2012,02,29,04,34,3.30
2012,02,29,04,35,3.30
2012,02,29,04,36,3.30
2012,02,29,04,38,3.20
2012,02,29,04,39,3.20
2012,02,29,04,40,3.20
2012,02,29,04,41,3.10
2012,02,29,04,42,3.10
2012,02,29,04,44,3.10
2012,02,29,04,45,3.10
2012,02,29,04,46,3.10
2012,02,29,04,47,3.10
2012,02,29,04,48,3.10
2012,02,29,04,50,3.20
2012,02,29,04,51,3.20
2012,02,29,04,52,3.20
2012,02,29,04,53,3.20
2012,02,29,04,55,3.20
2012,02,29,04,56,3.20
2012,02,29,04,57,3.30
2012,02,29,04,58,3.20
2012,02,29,05,00,3.20
2012,02,29,05,01,3.20
2012,02,29,05,02,3.20
2012,02,29,05,03,3.20
2012,02,29,05,04,3.20
2012,02,29,05,05,3.20
2012,02,29,05,06,3.20
2012,02,29,05,07,3.10
2012,02,29,05,08,3.00
2012,02,29,05,09,2.90
2012,02,29,05,10,2.90
2012,02,29,05,11,2.80
2012,02,29,05,12,2.80
2012,02,29,05,14,2.80
2012,02,29,05,15,2.80
2012,02,29,05,16,2.80
2012,02,29,05,17,2.90
2012,02,29,05,19,2.90
2012,02,29,05,20,2.90
2012,02,29,05,21,3.00
2012,02,29,05,22,2.90
2012,02,29,05,24,2.90
2012,02,29,05,25,2.90
2012,02,29,05,26,2.80
2012,02,29,05,27,2.70
2012,02,29,05,29,2.60
2012,02,29,05,30,2.40
2012,02,29,05,31,2.30
2012,02,29,05,32,2.20
2012,02,29,05,33,2.20
2012,02,29,05,35,2.20
2012,02,29,05,36,2.20
2012,02,29,05,37,2.20
2012,02,29,05,38,2.20
2012,02,29,05,40,2.20
2012,02,29,05,41,2.20
2012,02,29,05,42,2.20
2012,02,29,05,44,2.20
2012,02,29,05,45,2.20
2012,02,29,05,46,2.20
2012,02,29,05,47,2.30
2012,02,29,05,48,2.30
2012,02,29,05,50,2.40
2012,02,29,05,51,2.60
2012,02,29,05,52,2.70
2012,02,29,05,54,2.80
2012,02,29,05,55,2.80
2012,02,29,05,56,2.90
2012,02,29,05,57,2.90
2012,02,29,05,59,3.00
2012,02,29,06,00,3.10
2012,02,29,06,01,3.10
2012,02,29,06,02,3.20
2012,02,29,06,05,3.20
2012,02,29,06,06,3.20
2012,02,29,06,07,3.20
2012,02,29,06,08,3.30
2012,02,29,06,10,3.30
2012,02,29,06,11,3.30
2012,02,29,06,12,3.30
2012,02,29,06,13,3.30
2012,02,29,06,15,3.30
2012,02,29,06,16,3.30
2012,02,29,06,17,3.30
2012,02,29,06,19,3.30
2012,02,29,06,20,3.30
2012,02,29,06,21,3.30
2012,02,29,06,22,3.30
2012,02,29,06,23,3.30
2012,02,29,06,25,3.20
2012,02,29,06,26,3.30
2012,02,29,06,27,3.20
2012,02,29,06,28,3.20
2012,02,29,06,29,3.20
2012,02,29,06,30,3.30
2012,02,29,06,32,3.30
2012,02,29,06,33,3.20
2012,02,29,06,34,3.20
2012,02,29,06,36,3.20
2012,02,29,06,38,3.20
2012,02,29,06,39,3.20
2012,02,29,06,40,3.20
2012,02,29,06,41,3.20
2012,02,29,06,43,3.20
2012,02,29,06,44,3.20
2012,02,29,06,45,3.20
2012,02,29,06,46,3.20
2012,02,29,06,48,3.20
2012,02,29,06,49,3.20
2012,02,29,06,52,3.20
2012,02,29,06,54,3.20
2012,02,29,06,57,3.20
2012,02,29,06,58,3.20
2012,02,29,06,59,3.20
2012,02,29,07,00,3.20
2012,02,29,07,02,3.20
2012,02,29,07,03,3.20
2012,02,29,07,04,3.20
2012,02,29,07,05,3.20
2012,02,29,07,08,3.20
2012,02,29,07,09,3.20
2012,02,29,07,10,3.20
2012,02,29,07,13,3.20
2012,02,29,07,14,3.20
2012,02,29,07,17,3.20
2012,02,29,07,18,3.20
2012,02,29,07,19,3.20
2012,02,29,07,21,3.20
2012,02,29,07,23,3.20
2012,02,29,07,24,3.20
2012,02,29,07,25,3.20
2012,02,29,07,28,3.20
2012,02,29,07,29,3.20
2012,02,29,07,30,3.30
2012,02,29,07,31,3.30
2012,02,29,07,32,3.30
2012,02,29,07,33,3.30
2012,02,29,07,34,3.30
2012,02,29,07,35,3.30
2012,02,29,07,36,3.30
2012,02,29,07,37,3.30
2012,02,29,07,38,3.30
2012,02,29,07,39,3.30
2012,02,29,07,40,3.30
2012,02,29,07,41,3.30
2012,02,29,07,42,3.30
2012,02,29,07,43,3.30
2012,02,29,07,44,3.30
2012,02,29,07,46,3.30
2012,02,29,07,47,3.30
2012,02,29,07,48,3.30
2012,02,29,07,49,3.30
2012,02,29,07,50,3.30
2012,02,29,07,51,3.30
2012,02,29,07,52,3.30
2012,02,29,07,53,3.30
2012,02,29,07,54,3.30
2012,02,29,07,56,3.30
2012,02,29,07,57,3.30
2012,02,29,07,58,3.30
2012,02,29,07,59,3.30
2012,02,29,08,00,3.30
2012,02,29,08,01,3.30
2012,02,29,08,02,3.30
2012,02,29,08,04,3.30
2012,02,29,08,05,3.30
2012,02,29,08,06,3.30
2012,02,29,08,07,3.30
2012,02,29,08,08,3.40
2012,02,29,08,09,3.40
2012,02,29,08,10,3.40
2012,02,29,08,11,3.40
2012,02,29,08,12,3.40
2012,02,29,08,13,3.40
2012,02,29,08,14,3.40
2012,02,29,08,15,3.40
2012,02,29,08,16,3.40
2012,02,29,08,18,3.40
2012,02,29,08,19,3.40
2012,02,29,08,20,3.40
2012,02,29,08,21,3.40
2012,02,29,08,22,3.50
2012,02,29,08,23,3.50
2012,02,29,08,24,3.50
2012,02,29,08,25,3.50
2012,02,29,08,26,3.50
2012,02,29,08,27,3.50
2012,02,29,08,28,3.50
2012,02,29,08,29,3.60
2012,02,29,08,30,3.60
2012,02,29,08,31,3.60
2012,02,29,08,32,3.60
2012,02,29,08,33,3.60
2012,02,29,08,34,3.60
2012,02,29,08,35,3.60
2012,02,29,08,36,3.60
2012,02,29,08,37,3.60
2012,02,29,08,38,3.60
2012,02,29,08,39,3.60
2012,02,29,08,40,3.60
2012,02,29,08,41,3.60
2012,02,29,08,42,3.60
2012,02,29,08,43,3.60
2012,02,29,08,44,3.60
2012,02,29,08,45,3.60
2012,02,29,08,46,3.60
2012,02,29,08,47,3.70
2012,02,29,08,48,3.70
2012,02,29,08,49,3.70
2012,02,29,08,50,3.70
2012,02,29,08,51,3.70
2012,02,29,08,52,3.70
2012,02,29,08,53,3.70
2012,02,29,08,54,3.70
2012,02,29,08,55,3.70
2012,02,29,08,56,3.70
2012,02,29,08,57,3.70
2012,02,29,08,58,3.70
2012,02,29,08,59,3.70
2012,02,29,09,00,3.70
2012,02,29,09,01,3.80
2012,02,29,09,02,3.80
2012,02,29,09,03,3.70
2012,02,29,09,04,3.70
2012,02,29,09,05,3.70
2012,02,29,09,06,3.70
2012,02,29,09,07,3.70
2012,02,29,09,08,3.70
2012,02,29,09,09,3.70
2012,02,29,09,10,3.70
2012,02,29,09,11,3.70
2012,02,29,09,12,3.70
2012,02,29,09,13,3.70
2012,02,29,09,14,3.70
2012,02,29,09,15,3.70
2012,02,29,09,17,3.70
2012,02,29,09,18,3.70
2012,02,29,09,19,3.70
2012,02,29,09,20,3.60
2012,02,29,09,22,3.60
2012,02,29,09,23,3.60
2012,02,29,09,24,3.60
2012,02,29,09,25,3.60
2012,02,29,09,26,3.60
2012,02,29,09,27,3.60
2012,02,29,09,28,3.50
2012,02,29,09,29,3.50
2012,02,29,09,30,3.50
2012,02,29,09,32,3.50
2012,02,29,09,33,3.40
2012,02,29,09,34,3.40
2012,02,29,09,36,3.40
2012,02,29,09,37,3.40
2012,02,29,09,38,3.50
2012,02,29,09,39,3.50
2012,02,29,09,41,3.40
2012,02,29,09,42,3.50
2012,02,29,09,43,3.50
2012,02,29,09,44,3.50
2012,02,29,09,45,3.50
2012,02,29,09,46,3.60
2012,02,29,09,47,3.60
2012,02,29,09,48,3.60
2012,02,29,09,50,3.60
2012,02,29,09,51,3.50
2012,02,29,09,52,3.60
2012,02,29,09,53,3.50
2012,02,29,09,55,3.50
2012,02,29,09,56,3.60
2012,02,29,09,57,3.60
2012,02,29,09,59,3.50
2012,02,29,10,00,3.50
2012,02,29,10,01,3.50
2012,02,29,10,02,3.50
2012,02,29,10,03,3.50
2012,02,29,10,04,3.40
2012,02,29,10,06,3.40
2012,02,29,10,07,3.40
2012,02,29,10,08,3.40
2012,02,29,10,09,3.40
2012,02,29,10,11,3.40
2012,02,29,10,12,3.40
2012,02,29,10,13,3.40
2012,02,29,10,14,3.40
2012,02,29,10,16,3.40
2012,02,29,10,17,3.50
2012,02,29,10,18,3.50
2012,02,29,10,20,3.50
2012,02,29,10,21,3.60
2012,02,29,10,22,3.60
2012,02,29,10,23,3.60
2012,02,29,10,24,3.60
2012,02,29,10,26,3.60
2012,02,29,10,27,3.60
2012,02,29,10,28,3.60
2012,02,29,10,29,3.60
2012,02,29,10,31,3.60
2012,02,29,10,32,3.60
2012,02,29,10,33,3.60
2012,02,29,10,34,3.60
2012,02,29,10,36,3.60
2012,02,29,10,37,3.60
2012,02,29,10,38,3.60
2012,02,29,10,39,3.60
2012,02,29,10,40,3.60
2012,02,29,10,42,3.60
2012,02,29,10,43,3.60
2012,02,29,10,44,3.60
2012,02,29,10,45,3.60
2012,02,29,10,47,3.60
2012,02,29,10,48,3.60
2012,02,29,10,49,3.60
2012,02,29,10,51,3.50
2012,02,29,10,52,3.50
2012,02,29,10,53,3.50
2012,02,29,10,55,3.50
2012,02,29,10,56,3.50
2012,02,29,10,57,3.50
2012,02,29,10,59,3.50
2012,02,29,11,00,3.50
2012,02,29,11,01,3.50
2012,02,29,11,03,3.50
2012,02,29,11,04,3.50
2012,02,29,11,05,3.50
2012,02,29,11,06,3.60
2012,02,29,11,08,3.60
2012,02,29,11,09,3.60
2012,02,29,11,10,3.60
2012,02,29,11,12,3.60
2012,02,29,11,13,3.60
2012,02,29,11,14,3.60
2012,02,29,11,15,3.70
2012,02,29,11,16,3.70
2012,02,29,11,17,3.70
2012,02,29,11,19,3.70
2012,02,29,11,20,3.70
2012,02,29,11,21,3.80
2012,02,29,11,22,3.80
2012,02,29,11,24,3.80
2012,02,29,11,25,4.00
2012,02,29,11,26,4.10
2012,02,29,11,27,4.20
2012,02,29,11,29,4.30
2012,02,29,11,31,4.40
2012,02,29,11,32,4.50
2012,02,29,11,34,4.60
2012,02,29,11,35,4.60
2012,02,29,11,36,4.60
2012,02,29,11,37,4.70
2012,02,29,11,38,4.70
2012,02,29,11,39,4.70
2012,02,29,11,40,4.80
2012,02,29,11,41,4.80
2012,02,29,11,42,4.80
2012,02,29,11,43,4.80
2012,02,29,11,44,4.80
2012,02,29,11,45,4.80
2012,02,29,11,46,4.80
2012,02,29,11,47,4.80
2012,02,29,11,48,4.80
2012,02,29,11,50,4.80
2012,02,29,11,51,4.80
2012,02,29,11,52,4.80
2012,02,29,11,53,4.80
2012,02,29,11,54,4.80
2012,02,29,11,55,4.80
2012,02,29,11,56,4.90
2012,02,29,11,57,5.10
2012,02,29,11,58,5.10
2012,02,29,11,59,5.20
2012,02,29,12,01,5.30
2012,02,29,12,02,5.30
2012,02,29,12,03,5.40
2012,02,29,12,05,5.50
2012,02,29,12,06,5.70
2012,02,29,12,07,5.70
2012,02,29,12,08,5.70
2012,02,29,12,09,5.70
2012,02,29,12,10,5.70
2012,02,29,12,11,5.70
2012,02,29,12,12,5.70
2012,02,29,12,14,5.70
2012,02,29,12,15,5.60
2012,02,29,12,16,5.50
2012,02,29,12,17,5.50
2012,02,29,12,19,5.50
2012,02,29,12,20,5.60
2012,02,29,12,21,5.60
2012,02,29,12,22,5.60
2012,02,29,12,23,5.70
2012,02,29,12,24,5.70
2012,02,29,12,25,5.70
2012,02,29,12,26,5.70
2012,02,29,12,27,5.70
2012,02,29,12,28,5.70
2012,02,29,12,29,5.70
2012,02,29,12,31,5.60
2012,02,29,12,32,5.60
2012,02,29,12,33,5.60
2012,02,29,12,34,5.60
2012,02,29,12,35,5.60
2012,02,29,12,36,5.60
2012,02,29,12,37,5.60
2012,02,29,12,39,5.70
2012,02,29,12,40,5.80
2012,02,29,12,41,5.90
2012,02,29,12,42,5.90
2012,02,29,12,43,5.90
2012,02,29,12,44,6.00
2012,02,29,12,45,6.10
2012,02,29,12,46,6.10
2012,02,29,12,47,6.10
2012,02,29,12,48,6.10
2012,02,29,12,49,6.10
2012,02,29,12,50,6.10
2012,02,29,12,51,6.20
2012,02,29,12,53,6.30
2012,02,29,12,54,6.30
2012,02,29,12,55,6.30
2012,02,29,12,56,6.30
2012,02,29,12,57,6.30
2012,02,29,12,58,6.30
2012,02,29,12,59,6.30
2012,02,29,13,00,6.30
2012,02,29,13,01,6.20
2012,02,29,13,03,6.10
2012,02,29,13,04,6.00
2012,02,29,13,05,5.90
2012,02,29,13,06,5.80
2012,02,29,13,08,5.70
2012,02,29,13,09,5.60
2012,02,29,13,10,5.60
2012,02,29,13,11,5.50
2012,02,29,13,12,5.50
2012,02,29,13,13,5.40
2012,02,29,13,14,5.40
2012,02,29,13,15,5.40
2012,02,29,13,16,5.40
2012,02,29,13,17,5.40
2012,02,29,13,18,5.50
2012,02,29,13,19,5.60
2012,02,29,13,20,5.70
2012,02,29,13,21,5.70
2012,02,29,13,23,5.60
2012,02,29,13,24,5.60
2012,02,29,13,25,5.50
2012,02,29,13,27,5.40
2012,02,29,13,28,5.30
2012,02,29,13,29,5.30
2012,02,29,13,30,5.20
2012,02,29,13,32,5.20
2012,02,29,13,33,5.10
2012,02,29,13,34,5.00
2012,02,29,13,35,4.90
2012,02,29,13,37,4.90
2012,02,29,13,38,4.80
2012,02,29,13,39,4.80
2012,02,29,13,40,4.80
2012,02,29,13,42,4.90
2012,02,29,13,43,4.90
2012,02,29,13,44,5.00
2012,02,29,13,45,5.00
2012,02,29,13,46,5.00
2012,02,29,13,47,5.10
2012,02,29,13,48,5.10
2012,02,29,13,50,5.10
2012,02,29,13,51,5.00
2012,02,29,13,52,4.80
2012,02,29,13,53,4.70
2012,02,29,13,54,4.70
2012,02,29,13,55,4.80
2012,02,29,13,56,4.80
2012,02,29,13,57,4.80
2012,02,29,13,58,4.80
2012,02,29,13,59,4.80
2012,02,29,14,00,4.70
2012,02,29,14,01,4.60
2012,02,29,14,02,4.40
2012,02,29,14,04,4.40
2012,02,29,14,05,4.20
2012,02,29,14,06,4.20
2012,02,29,14,07,4.20
2012,02,29,14,08,4.20
2012,02,29,14,09,4.20
2012,02,29,14,10,4.20
2012,02,29,14,11,4.20
2012,02,29,14,12,4.10
2012,02,29,14,13,4.10
2012,02,29,14,14,4.00
2012,02,29,14,15,3.90
2012,02,29,14,16,3.90
2012,02,29,14,18,3.90
2012,02,29,14,19,3.90
2012,02,29,14,20,3.90
2012,02,29,14,21,3.90
2012,02,29,14,22,3.90
2012,02,29,14,24,3.90
2012,02,29,14,25,3.90
2012,02,29,14,26,4.00
2012,02,29,14,27,4.10
2012,02,29,14,28,4.10
2012,02,29,14,29,4.10
2012,02,29,14,30,4.10
2012,02,29,14,31,4.10
2012,02,29,14,32,4.00
2012,02,29,14,33,4.10
2012,02,29,14,35,4.10
2012,02,29,14,36,4.10
2012,02,29,14,37,4.20
2012,02,29,14,39,4.20
2012,02,29,14,40,4.10
2012,02,29,14,41,4.10
2012,02,29,14,42,4.10
2012,02,29,14,44,4.00
2012,02,29,14,45,4.00
2012,02,29,14,46,3.90
2012,02,29,14,47,3.90
2012,02,29,14,49,3.90
2012,02,29,14,50,3.90
2012,02,29,14,51,3.80
2012,02,29,14,53,3.80
2012,02,29,14,54,3.80
2012,02,29,14,55,3.80
2012,02,29,14,56,3.80
2012,02,29,14,58,3.80
2012,02,29,14,59,3.90
2012,02,29,15,00,3.90
2012,02,29,15,01,3.90
2012,02,29,15,03,3.90
2012,02,29,15,04,3.90
2012,02,29,15,05,3.90
2012,02,29,15,06,4.00
2012,02,29,15,08,4.00
2012,02,29,15,09,4.10
2012,02,29,15,10,4.00
2012,02,29,15,11,4.10
2012,02,29,15,13,4.10
2012,02,29,15,14,4.10
2012,02,29,15,15,4.00
2012,02,29,15,16,4.00
2012,02,29,15,17,4.10
2012,02,29,15,19,4.10
2012,02,29,15,20,4.10
2012,02,29,15,22,4.10
2012,02,29,15,23,4.00
2012,02,29,15,24,4.00
2012,02,29,15,25,4.00
2012,02,29,15,27,4.00
2012,02,29,15,28,4.00
2012,02,29,15,29,3.90
2012,02,29,15,30,3.90
2012,02,29,15,32,3.90
2012,02,29,15,33,4.00
2012,02,29,15,34,4.00
2012,02,29,15,35,4.00
2012,02,29,15,36,4.10
2012,02,29,15,38,4.10
2012,02,29,15,39,4.10
2012,02,29,15,40,4.00
2012,02,29,15,41,3.90
2012,02,29,15,43,3.90
2012,02,29,15,44,4.00
2012,02,29,15,45,4.00
2012,02,29,15,48,4.10
2012,02,29,15,49,4.10
2012,02,29,15,50,4.00
2012,02,29,15,51,4.00
2012,02,29,15,52,4.00
2012,02,29,15,53,3.90
2012,02,29,15,54,3.90
2012,02,29,15,55,3.90
2012,02,29,15,57,3.90
2012,02,29,15,58,4.00
2012,02,29,15,59,4.00
2012,02,29,16,00,4.00
2012,02,29,16,02,4.00
2012,02,29,16,03,4.10
2012,02,29,16,04,4.00
2012,02,29,16,06,4.00
2012,02,29,16,07,4.00
2012,02,29,16,09,4.00
2012,02,29,16,10,3.90
2012,02,29,16,12,3.90
2012,02,29,16,14,3.90
2012,02,29,16,15,3.80
2012,02,29,16,16,3.80
2012,02,29,16,18,3.80
2012,02,29,16,19,3.70
2012,02,29,16,22,3.70
2012,02,29,16,23,3.70
2012,02,29,16,24,3.70
2012,02,29,16,26,3.60
2012,02,29,16,27,3.70
2012,02,29,16,29,3.70
2012,02,29,16,30,3.70
2012,02,29,16,31,3.70
2012,02,29,16,32,3.70
2012,02,29,16,33,3.70
2012,02,29,16,34,3.70
2012,02,29,16,35,3.70
2012,02,29,16,36,3.70
2012,02,29,16,37,3.80
2012,02,29,16,38,3.80
2012,02,29,16,39,3.80
2012,02,29,16,40,3.80
2012,02,29,16,41,3.90
2012,02,29,16,42,3.90
2012,02,29,16,43,3.90
2012,02,29,16,44,3.90
2012,02,29,16,45,3.90
2012,02,29,16,47,3.90
2012,02,29,16,48,3.90
2012,02,29,16,49,3.90
2012,02,29,16,50,3.90
2012,02,29,16,52,4.00
2012,02,29,16,53,4.00
2012,02,29,16,54,4.10
2012,02,29,16,55,4.10
2012,02,29,16,57,4.00
2012,02,29,16,58,4.00
2012,02,29,16,59,4.00
2012,02,29,17,00,4.00
2012,02,29,17,01,4.00
2012,02,29,17,02,4.00
2012,02,29,17,03,4.00
2012,02,29,17,04,3.90
2012,02,29,17,05,3.90
2012,02,29,17,06,3.90
2012,02,29,17,07,3.90
2012,02,29,17,08,3.90
2012,02,29,17,09,3.80
2012,02,29,17,10,3.80
2012,02,29,17,11,3.80
2012,02,29,17,12,3.80
2012,02,29,17,13,3.80
2012,02,29,17,14,3.80
2012,02,29,17,15,3.80
2012,02,29,17,16,3.80
2012,02,29,17,17,3.80
2012,02,29,17,18,3.80
2012,02,29,17,19,3.80
2012,02,29,17,20,3.80
2012,02,29,17,21,3.80
2012,02,29,17,22,3.80
2012,02,29,17,23,3.80
2012,02,29,17,24,3.80
2012,02,29,17,25,3.80
2012,02,29,17,26,3.80
2012,02,29,17,27,3.80
2012,02,29,17,28,3.80
2012,02,29,17,29,3.80
2012,02,29,17,30,3.80
2012,02,29,17,32,3.80
2012,02,29,17,33,3.80
2012,02,29,17,34,3.80
2012,02,29,17,35,3.80
2012,02,29,17,37,3.80
2012,02,29,17,38,3.80
2012,02,29,17,39,3.80
2012,02,29,17,40,3.80
2012,02,29,17,41,3.80
2012,02,29,17,43,3.80
2012,02,29,17,44,3.80
2012,02,29,17,46,3.80
2012,02,29,17,47,3.80
2012,02,29,17,48,3.80
2012,02,29,17,49,3.80
2012,02,29,17,51,3.80
2012,02,29,17,52,3.80
2012,02,29,17,53,3.80
2012,02,29,17,55,3.80
2012,02,29,17,56,3.80
2012,02,29,17,57,3.80
2012,02,29,17,58,3.80
2012,02,29,18,00,3.80
2012,02,29,18,01,3.70
2012,02,29,18,02,3.70
2012,02,29,18,03,3.70
2012,02,29,18,05,3.60
2012,02,29,18,06,3.60
2012,02,29,18,07,3.60
2012,02,29,18,09,3.50
2012,02,29,18,10,3.40
2012,02,29,18,11,3.40
2012,02,29,18,13,3.40
2012,02,29,18,14,3.40
2012,02,29,18,15,3.30
2012,02,29,18,16,3.30
2012,02,29,18,18,3.30
2012,02,29,18,19,3.30
2012,02,29,18,20,3.30
2012,02,29,18,21,3.20
2012,02,29,18,23,3.20
2012,02,29,18,24,3.20
2012,02,29,18,26,3.20
2012,02,29,18,27,3.10
2012,02,29,18,28,3.10
2012,02,29,18,29,3.10
2012,02,29,18,30,3.10
2012,02,29,18,31,3.00
2012,02,29,18,32,3.00
2012,02,29,18,33,3.00
2012,02,29,18,34,3.00
2012,02,29,18,35,2.90
2012,02,29,18,36,2.90
2012,02,29,18,37,2.90
2012,02,29,18,38,2.90
2012,02,29,18,39,2.90
2012,02,29,18,40,3.00
2012,02,29,18,41,3.00
2012,02,29,18,42,3.00
2012,02,29,18,44,3.00
2012,02,29,18,45,3.00
2012,02,29,18,46,3.10
2012,02,29,18,47,3.10
2012,02,29,18,49,3.10
2012,02,29,18,50,3.10
2012,02,29,18,51,3.00
2012,02,29,18,52,3.00
2012,02,29,18,54,3.00
2012,02,29,18,55,3.00
2012,02,29,18,56,3.00
2012,02,29,18,57,3.00
2012,02,29,18,59,3.00
2012,02,29,19,00,2.90
2012,02,29,19,01,2.90
2012,02,29,19,02,2.90
2012,02,29,19,03,2.90
2012,02,29,19,04,2.90
2012,02,29,19,05,2.90
2012,02,29,19,06,2.90
2012,02,29,19,08,2.90
2012,02,29,19,09,2.90
2012,02,29,19,10,2.90
2012,02,29,19,11,2.90
2012,02,29,19,12,2.90
2012,02,29,19,13,2.90
2012,02,29,19,14,2.90
2012,02,29,19,15,2.90
2012,02,29,19,16,2.90
2012,02,29,19,17,2.90
2012,02,29,19,19,2.90
2012,02,29,19,20,2.90
2012,02,29,19,21,2.90
2012,02,29,19,22,2.90
2012,02,29,19,23,2.90
2012,02,29,19,25,2.90
2012,02,29,19,26,2.90
2012,02,29,19,27,2.90
2012,02,29,19,28,2.90
2012,02,29,19,30,2.90
2012,02,29,19,31,2.90
2012,02,29,19,32,2.90
2012,02,29,19,33,3.00
2012,02,29,19,35,3.00
2012,02,29,19,36,3.00
2012,02,29,19,37,3.00
2012,02,29,19,38,3.00
2012,02,29,19,40,3.10
2012,02,29,19,41,3.10
2012,02,29,19,42,3.10
2012,02,29,19,43,3.10
2012,02,29,19,44,3.10
2012,02,29,19,45,3.10
2012,02,29,19,46,3.10
2012,02,29,19,47,3.10
2012,02,29,19,49,3.20
2012,02,29,19,50,3.20
2012,02,29,19,51,3.20
2012,02,29,19,52,3.20
2012,02,29,19,54,3.20
2012,02,29,19,55,3.30
2012,02,29,19,56,3.30
2012,02,29,19,57,3.30
2012,02,29,19,59,3.30
2012,02,29,20,00,3.30
2012,02,29,20,01,3.30
2012,02,29,20,02,3.30
2012,02,29,20,04,3.40
2012,02,29,20,05,3.40
2012,02,29,20,06,3.40
2012,02,29,20,07,3.40
2012,02,29,20,08,3.40
2012,02,29,20,09,3.40
2012,02,29,20,10,3.40
2012,02,29,20,11,3.40
2012,02,29,20,12,3.40
2012,02,29,20,13,3.40
2012,02,29,20,14,3.40
2012,02,29,20,16,3.40
2012,02,29,20,17,3.40
2012,02,29,20,18,3.40
2012,02,29,20,19,3.40
2012,02,29,20,20,3.40
2012,02,29,20,21,3.40
2012,02,29,20,22,3.40
2012,02,29,20,24,3.40
2012,02,29,20,25,3.40
2012,02,29,20,26,3.40
2012,02,29,20,28,3.40
2012,02,29,20,29,3.50
2012,02,29,20,30,3.50
2012,02,29,20,31,3.50
2012,02,29,20,32,3.50
2012,02,29,20,34,3.40
2012,02,29,20,35,3.40
2012,02,29,20,36,3.40
2012,02,29,20,37,3.40
2012,02,29,20,39,3.40
2012,02,29,20,40,3.30
2012,02,29,20,41,3.30
2012,02,29,20,43,3.30
2012,02,29,20,44,3.30
2012,02,29,20,45,3.30
2012,02,29,20,47,3.30
2012,02,29,20,48,3.30
2012,02,29,20,49,3.30
2012,02,29,20,50,3.30
2012,02,29,20,52,3.30
2012,02,29,20,53,3.20
2012,02,29,20,54,3.20
2012,02,29,20,55,3.20
2012,02,29,20,57,3.20
2012,02,29,20,58,3.20
2012,02,29,20,59,3.20
2012,02,29,21,00,3.20
2012,02,29,21,02,3.20
2012,02,29,21,03,3.10
2012,02,29,21,04,3.10
2012,02,29,21,05,3.20
2012,02,29,21,06,3.20
2012,02,29,21,07,3.20
2012,02,29,21,08,3.20
2012,02,29,21,10,3.20
2012,02,29,21,11,3.20
2012,02,29,21,12,3.20
2012,02,29,21,13,3.20
2012,02,29,21,15,3.20
2012,02,29,21,16,3.20
2012,02,29,21,17,3.20
2012,02,29,21,18,3.20
2012,02,29,21,20,3.20
2012,02,29,21,21,3.20
2012,02,29,21,22,3.20
2012,02,29,21,23,3.20
2012,02,29,21,25,3.20
2012,02,29,21,26,3.20
2012,02,29,21,27,3.20
2012,02,29,21,30,3.20